Weather History for KHQM - September, 2012

Change the Weather History Date:

Thursday, September 13, 2012

  Actual Average Record
Temperature  
Mean Temperature 66 °F 59 °F  
Max Temperature 84 °F 67 °F 88 °F (1957)
Min Temperature 51 °F 51 °F 38 °F (1970)
Degree Days  
Heating Degree Days 0 6  
Month to date heating degree days 66  
Cooling Degree Days 2 0  
Month to date cooling degree days 0  
Year to date cooling degree days 16  
Growing Degree Days 16 (Base 50)    
Moisture  
Dew Point 48 °F    
Average Humidity 59    
Maximum Humidity 90    
Minimum Humidity 28    
Precipitation  
Precipitation 0.00 in 0.07 in 0.98 in (1962)
Month to date precipitation 0.86  
Year to date precipitation 38.47  
Sea Level Pressure  
Sea Level Pressure 30.11 in    
Wind  
Wind Speed 9 mph (East)    
Max Wind Speed 15 mph    
Max Gust Speed -    
Visibility 10 miles    
Events      
T = Trace of Precipitation, MM = Missing Value Source: NWS Daily Summary

Daily Weather History Graph

Daily Weather History Graph

Search for Another Location

Airport or City:

Trip Planner

Search our weather history database for the weather conditions in past years. The results will help you decide how hot, cold, wet, or windy it might be!

Date:

Astronomy

Sep. 13, 2012 Rise Set
Actual Time 6:51 AM PDT 7:30 PM PDT
Civil Twilight 6:20 AM PDT 8:00 PM PDT
Nautical Twilight 5:44 AM PDT 8:37 PM PDT
Astronomical Twilight 5:06 AM PDT 9:15 PM PDT
Moon 4:10 AM PDT (9/13) 6:00 PM PDT (9/13)
Length of Visible Light 13h 40m
Length of Day
12h 38m
Waning Crescent, 7% of the Moon is Illuminated
Sep 13
Waning Crescent
Sep 15
New
Sep 22
First Quarter
Sep 29
Full
Oct 8
Last Quarter

Hourly Weather History & Observations

Time (PDT) Temp. Heat Index Dew Point Humidity Pressure Visibility Wind Dir Wind Speed Gust Speed Precip Events Conditions
12:53 AM 61.0 °F - 37.9 °F 42% 30.20 in 10.0 mi NE 10.4 mph - N/A   Overcast
1:53 AM 60.1 °F - 39.0 °F 46% 30.19 in 10.0 mi NNE 11.5 mph - N/A   Overcast
2:53 AM 59.0 °F - 41.0 °F 51% 30.18 in 10.0 mi NE 10.4 mph - N/A   Mostly Cloudy
3:53 AM 54.0 °F - 43.0 °F 66% 30.17 in 10.0 mi ENE 9.2 mph - N/A   Overcast
4:53 AM 53.1 °F - 45.0 °F 74% 30.16 in 10.0 mi East 11.5 mph - N/A   Overcast
5:53 AM 51.1 °F - 44.1 °F 77% 30.16 in 10.0 mi ENE 8.1 mph - N/A   Scattered Clouds
6:53 AM 51.1 °F - 43.0 °F 74% 30.15 in 10.0 mi ENE 9.2 mph - N/A   Clear
7:53 AM 52.0 °F - 44.1 °F 74% 30.16 in 10.0 mi East 9.2 mph - N/A   Clear
8:53 AM 59.0 °F - 45.0 °F 60% 30.16 in 10.0 mi ENE 9.2 mph - N/A   Clear
9:53 AM 62.1 °F - 48.0 °F 60% 30.15 in 10.0 mi East 11.5 mph - N/A   Clear
10:53 AM 68.0 °F - 48.0 °F 49% 30.15 in 10.0 mi East 10.4 mph - N/A   Clear
11:53 AM 72.0 °F - 50.0 °F 46% 30.12 in 9.0 mi East 13.8 mph - N/A   Clear
12:53 PM 75.0 °F - 48.9 °F 40% 30.11 in 8.0 mi East 15.0 mph - N/A   Clear
1:53 PM 77.0 °F - 46.9 °F 34% 30.09 in 9.0 mi East 10.4 mph - N/A   Clear
2:53 PM 78.1 °F - 50.0 °F 37% 30.06 in 10.0 mi East 9.2 mph - N/A   Clear
3:53 PM 82.0 °F - 46.0 °F 28% 30.05 in 10.0 mi East 8.1 mph - N/A   Clear
4:53 PM 80.6 °F - 46.4 °F 30% 30.03 in 10.0 mi SSE 3.5 mph - N/A   Clear
5:53 PM 82.0 °F 81.3 °F 54.0 °F 38% 30.03 in 10.0 mi West 4.6 mph - N/A   Clear
6:53 PM 66.9 °F - 59.0 °F 76% 30.04 in 10.0 mi South 6.9 mph - N/A   Clear
7:53 PM 63.0 °F - 57.0 °F 81% 30.04 in 10.0 mi SSW 5.8 mph - N/A   Clear
8:53 PM 62.1 °F - 55.9 °F 80% 30.06 in 10.0 mi South 4.6 mph - N/A   Clear
9:53 PM 60.1 °F - 57.0 °F 90% 30.07 in 10.0 mi South 4.6 mph - N/A   Clear
10:53 PM 59.0 °F - 55.0 °F 87% 30.08 in 10.0 mi Calm Calm - N/A   Clear
11:53 PM 59.0 °F - 54.0 °F 83% 30.08 in 10.0 mi Calm Calm - N/A   Clear